Weather History for Tullahoma, TN

Change the Weather History Date:

Tuesday, April 8, 2014

  Actual Average Record
Temperature  
Mean Temperature 46 °F -  
Max Temperature 60 °F 70 °F 75 °F (2013)
Min Temperature 33 °F 45 °F 33 °F (2014)
Degree Days  
Heating Degree Days 18    
Moisture  
Dew Point 40 °F    
Average Humidity 75    
Maximum Humidity 100    
Minimum Humidity 45    
Precipitation  
Precipitation 0.00 in - - ()
Sea Level Pressure  
Sea Level Pressure 29.83 in    
Wind  
Wind Speed 6 mph (NW)    
Max Wind Speed 14 mph    
Max Gust Speed 18 mph    
Visibility 9 miles    
Events      
Averages and records for this station are not official NWS values.
T = Trace of Precipitation, MM = Missing Value Source: NWS Daily Summary

Daily Weather History Graph

Daily Weather History Graph

Search for Another Location

Airport:

Trip Planner

Search our weather history database for the weather conditions in past years. The results will help you decide how hot, cold, wet, or windy it might be!

Date:

Astronomy

Apr. 08, 2014 Rise Set
Actual Time 6:21 AM CDT 7:12 PM CDT
Civil Twilight 5:56 AM CDT 7:38 PM CDT
Nautical Twilight 5:25 AM CDT 8:08 PM CDT
Astronomical Twilight 4:54 AM CDT 8:40 PM CDT
Moon 1:17 PM CDT (4/8) 2:21 AM CDT (4/8)
Length of Visible Light 13h 42m
Length of Day
12h 50m
Waxing Gibbous, 63% of the Moon is Illuminated
Apr 8
Waxing Gibbous
Apr 15
Full
Apr 22
Last Quarter
Apr 29
New
May 6
First Quarter

Hourly Weather History & Observations

Time (CDT) Temp. Windchill Dew Point Humidity Pressure Visibility Wind Dir Wind Speed Gust Speed Precip Events Conditions
12:15 AM 44.6 °F 40.2 °F 42.8 °F 93% 29.84 in 6.0 mi West 8.1 mph - N/A   Overcast
12:35 AM 44.6 °F 38.8 °F 42.8 °F 93% 29.84 in 10.0 mi West 11.5 mph - N/A   Overcast
12:55 AM 44.6 °F 40.2 °F 42.8 °F 93% 29.84 in 10.0 mi WNW 8.1 mph - N/A   Overcast
1:15 AM 44.6 °F 38.8 °F 42.8 °F 93% 29.83 in 10.0 mi West 11.5 mph - N/A   Overcast
1:35 AM 42.8 °F 38.0 °F 41.0 °F 93% 29.83 in 10.0 mi WNW 8.1 mph - N/A   Mostly Cloudy
1:55 AM 42.8 °F 37.5 °F 41.0 °F 93% 29.83 in 10.0 mi WNW 9.2 mph - N/A   Overcast
2:15 AM 42.8 °F 38.0 °F 41.0 °F 93% 29.82 in 10.0 mi WNW 8.1 mph - N/A   Overcast
2:35 AM 42.8 °F 38.6 °F 41.0 °F 93% 29.82 in 10.0 mi WNW 6.9 mph - N/A   Overcast
2:55 AM 42.8 °F 40.1 °F 39.2 °F 87% 29.82 in 10.0 mi West 4.6 mph - N/A   Mostly Cloudy
3:15 AM 41.0 °F 39.0 °F 39.2 °F 93% 29.81 in 10.0 mi West 3.5 mph - N/A   Partly Cloudy
3:35 AM 39.2 °F 37.0 °F 39.2 °F 100% 29.81 in 10.0 mi West 3.5 mph - N/A   Clear
3:55 AM 39.2 °F 37.0 °F 37.4 °F 93% 29.81 in 10.0 mi West 3.5 mph - N/A   Clear
4:15 AM 39.2 °F - 37.4 °F 93% 29.80 in 10.0 mi Calm Calm - N/A   Clear
4:35 AM 39.2 °F - 39.2 °F 100% 29.80 in 10.0 mi Calm Calm - N/A   Clear
4:55 AM 39.2 °F - 37.4 °F 93% 29.80 in 8.0 mi Calm Calm - N/A   Clear
5:15 AM 37.4 °F - 37.4 °F 100% 29.80 in 9.0 mi Calm Calm - N/A   Clear
5:35 AM 35.6 °F - 35.6 °F 100% 29.80 in 1.8 mi Calm Calm - N/A   Clear
5:55 AM 33.8 °F - 33.8 °F 100% 29.81 in 0.5 mi Calm Calm - N/A   Unknown
6:15 AM 35.6 °F - 33.8 °F 93% 29.82 in 3.0 mi Calm Calm - N/A   Clear
6:35 AM 33.8 °F 30.8 °F 33.8 °F 100% 29.82 in 5.0 mi West 3.5 mph - N/A   Clear
7:15 AM 35.6 °F - 33.8 °F 93% 29.83 in 9.0 mi Calm Calm - N/A   Clear
7:35 AM 39.2 °F - 37.4 °F 93% 29.84 in 9.0 mi Calm Calm - N/A   Clear
7:55 AM 42.8 °F - 39.2 °F 87% 29.84 in 10.0 mi Calm Calm - N/A   Clear
8:15 AM 44.6 °F - 41.0 °F 87% 29.85 in 10.0 mi Calm Calm - N/A   Partly Cloudy
8:35 AM 46.4 °F 45.2 °F 41.0 °F 81% 29.85 in 10.0 mi NNW 3.5 mph - N/A   Mostly Cloudy
8:55 AM 46.4 °F 45.2 °F 39.2 °F 76% 29.85 in 9.0 mi NW 3.5 mph - N/A   Mostly Cloudy
9:15 AM 46.4 °F 44.3 °F 39.2 °F 76% 29.85 in 10.0 mi NNW 4.6 mph - N/A   Mostly Cloudy
9:35 AM 48.2 °F - 39.2 °F 71% 29.86 in 10.0 mi West 5.8 mph - N/A   Mostly Cloudy
9:55 AM 48.2 °F - 39.2 °F 71% 29.86 in 10.0 mi Calm Calm - N/A   Mostly Cloudy
10:15 AM 48.2 °F - 39.2 °F 71% 29.85 in 10.0 mi Calm Calm - N/A   Scattered Clouds
10:35 AM 50.0 °F - 39.2 °F 66% 29.85 in 10.0 mi Calm Calm - N/A   Partly Cloudy
10:55 AM 53.6 °F - 41.0 °F 62% 29.85 in 10.0 mi East 3.5 mph - N/A   Scattered Clouds
11:15 AM 53.6 °F - 39.2 °F 58% 29.85 in 10.0 mi West 3.5 mph - N/A   Partly Cloudy
11:35 AM 55.4 °F - 41.0 °F 58% 29.85 in 10.0 mi NNW 9.2 mph - N/A   Partly Cloudy
11:55 AM 55.4 °F - 42.8 °F 63% 29.84 in 10.0 mi West 6.9 mph - N/A   Scattered Clouds
12:15 PM 55.4 °F - 42.8 °F 63% 29.83 in 10.0 mi West 10.4 mph - N/A   Mostly Cloudy
12:35 PM 57.2 °F - 41.0 °F 55% 29.82 in 10.0 mi WNW 10.4 mph - N/A   Partly Cloudy
12:55 PM 57.2 °F - 39.2 °F 51% 29.81 in 10.0 mi NW 9.2 mph - N/A   Clear
1:15 PM 59.0 °F - 39.2 °F 48% 29.80 in 10.0 mi West 4.6 mph - N/A   Scattered Clouds
1:35 PM 59.0 °F - 39.2 °F 48% 29.79 in 10.0 mi NNW 13.8 mph - N/A   Mostly Cloudy
1:55 PM 57.2 °F - 39.2 °F 51% 29.78 in 10.0 mi WNW 12.7 mph 18.4 mph N/A   Mostly Cloudy
2:15 PM 60.8 °F - 39.2 °F 45% 29.77 in 10.0 mi NW 9.2 mph - N/A   Partly Cloudy
2:35 PM 60.8 °F - 39.2 °F 45% 29.77 in 10.0 mi WNW 9.2 mph - N/A   Partly Cloudy
2:55 PM 59.0 °F - 39.2 °F 48% 29.76 in 10.0 mi Calm Calm - N/A   Scattered Clouds
3:35 PM 60.8 °F - 39.2 °F 45% 29.75 in 10.0 mi West 9.2 mph - N/A   Scattered Clouds
3:55 PM 60.8 °F - 39.2 °F 45% 29.75 in 10.0 mi WNW 6.9 mph - N/A   Scattered Clouds
4:15 PM 60.8 °F - 39.2 °F 45% 29.75 in 10.0 mi Calm Calm - N/A   Partly Cloudy
4:35 PM 59.0 °F - 37.4 °F 45% 29.75 in 10.0 mi NNW 3.5 mph - N/A   Mostly Cloudy
4:55 PM 57.2 °F - 37.4 °F 48% 29.76 in 10.0 mi NNE 9.2 mph - N/A   Mostly Cloudy
5:15 PM 57.2 °F - 37.4 °F 48% 29.77 in 10.0 mi NE 6.9 mph - N/A   Partly Cloudy
5:35 PM 57.2 °F - 39.2 °F 51% 29.77 in 10.0 mi NNE 4.6 mph - N/A   Clear
5:55 PM 57.2 °F - 39.2 °F 51% 29.77 in 10.0 mi NNE 6.9 mph - N/A   Partly Cloudy
6:15 PM 53.6 °F - 42.8 °F 67% 29.78 in 10.0 mi Calm Calm - N/A   Mostly Cloudy
6:35 PM 53.6 °F - 42.8 °F 67% 29.80 in 10.0 mi NW 6.9 mph - N/A   Overcast
6:55 PM 51.8 °F - 46.4 °F 82% 29.81 in 4.0 mi WSW 8.1 mph - N/A   Mostly Cloudy
7:15 PM 50.0 °F - 44.6 °F 82% 29.81 in 10.0 mi SSW 4.6 mph - N/A   Overcast
7:35 PM 50.0 °F - 46.4 °F 87% 29.83 in 10.0 mi West 4.6 mph - N/A   Overcast
7:55 PM 50.0 °F - 44.6 °F 82% 29.84 in 10.0 mi WNW 3.5 mph - N/A   Overcast
8:15 PM 51.8 °F - 42.8 °F 71% 29.85 in 10.0 mi NNW 11.5 mph - N/A   Overcast
8:35 PM 51.8 °F - 42.8 °F 71% 29.87 in 10.0 mi NNW 9.2 mph - N/A   Overcast
8:55 PM 51.8 °F - 42.8 °F 71% 29.88 in 10.0 mi NNW 6.9 mph - N/A   Overcast
9:15 PM 50.0 °F - 42.8 °F 76% 29.88 in 10.0 mi NNW 5.8 mph - N/A   Overcast
9:35 PM 50.0 °F - 42.8 °F 76% 29.88 in 10.0 mi NNW 5.8 mph - N/A   Overcast
9:55 PM 48.2 °F - 42.8 °F 82% 29.89 in 10.0 mi NW 6.9 mph - N/A   Overcast
10:15 PM 48.2 °F - 42.8 °F 82% 29.89 in 10.0 mi NW 8.1 mph - N/A   Overcast
10:35 PM 48.2 °F - 42.8 °F 82% 29.90 in 10.0 mi NW 6.9 mph - N/A   Overcast
10:55 PM 48.2 °F - 42.8 °F 82% 29.90 in 10.0 mi NW 8.1 mph - N/A   Overcast
11:15 PM 48.2 °F - 42.8 °F 82% 29.91 in 10.0 mi WNW 4.6 mph - N/A   Mostly Cloudy
11:35 PM 46.4 °F 44.3 °F 42.8 °F 87% 29.91 in 10.0 mi WNW 4.6 mph - N/A   Mostly Cloudy
11:55 PM 46.4 °F 45.2 °F 41.0 °F 81% 29.91 in 10.0 mi WNW 3.5 mph - N/A   Mostly Cloudy